This is the latest recevied weather packets stored in our database for station/object F6BIJ-13. If no packets are shown the sender has not sent any weather packets the latest 10 day(s).
| Time | Temp. | Humidity | Pressure | Rain* | Wind** | Luminosity | Snow |
|---|---|---|---|---|---|---|---|
| 1788513156 | 27.22° C | 45% | 1021 hPa | 0 mm | - | - | - |
| 1788512796 | 25.56° C | 50% | 1021 hPa | 0 mm | - | - | - |
| 1788512077 | 25.56° C | 49% | 1021 hPa | 0 mm | - | - | - |
| 1788510997 | 25° C | 51% | 1021 hPa | 0 mm | - | - | - |
| 1788510636 | 25° C | 50% | 1022 hPa | 0 mm | - | - | - |
| 1788510277 | 23.89° C | 51% | 1022 hPa | 0 mm | - | - | - |
| 1788509916 | 23.33° C | 52% | 1022 hPa | 0 mm | - | - | - |
| 1788509557 | 23.89° C | 52% | 1022 hPa | 0 mm | - | - | - |
| 1788509196 | 23.33° C | 55% | 1022 hPa | 0 mm | - | - | - |
| 1788508836 | 23.33° C | 53% | 1022 hPa | 0 mm | - | - | - |
| 1788508477 | 23.33° C | 55% | 1022 hPa | 0 mm | - | - | - |
| 1788508117 | 22.22° C | 59% | 1022 hPa | 0 mm | - | - | - |
| 1788507756 | 21.11° C | 60% | 1022 hPa | 0 mm | - | - | - |
| 1788507396 | 21.11° C | 61% | 1022 hPa | 0 mm | - | - | - |
| 1788507036 | 20° C | 64% | 1022 hPa | 0 mm | - | - | - |
| 1788506676 | 18.89° C | 66% | 1022 hPa | 0 mm | - | - | - |
| 1788506316 | 18.89° C | 69% | 1022 hPa | 0 mm | - | - | - |
| 1788505956 | 18.89° C | 69% | 1022 hPa | 0 mm | - | - | - |
| 1788505596 | 18.33° C | 67% | 1022 hPa | 0 mm | - | - | - |
| 1788504517 | 18.33° C | 75% | 1022 hPa | 0 mm | - | - | - |
| 1788503796 | 17.22° C | 78% | 1022 hPa | 0 mm | - | - | - |
| 1788503077 | 17.22° C | 80% | 1022 hPa | 0 mm | - | - | - |
| 1788502717 | 16.67° C | 80% | 1022 hPa | 0 mm | - | - | - |
| 1788502356 | 16.11° C | 82% | 1022 hPa | 0 mm | - | - | - |
| 1788501996 | 16.11° C | 84% | 1022 hPa | 0 mm | - | - | - |
* Rain latest 24 hours (hover to see other rain measurements)
** Current wind speed in m/s (hover to see current wind gust speed)